Location: Bremen
(53.0793°N, 8.8017°E)
Time: 05:19:36
(UTC+01:00)

Tiros 1 - Pass Details

Date: 10 December 2021
Orbit: 629 x 664 km, 48.4° (Epoch: 25 January)

Event Time Altitude Azimuth Distance (km) Brightness Sun altitude
Rises 17:16:52 0° 228° (SW) 2,910 12.2 -9.6°
Reaches altitude 10° 17:19:23 10° 218° (SW) 2,007 10.8 -9.9°
Maximum altitude 17:23:24 30° 157° (SSE) 1,132 8.4 -10.5°
Enters shadow 17:27:17 11° 97° (E) 1,965 9.1 -11.0°
